Home > Time Zones > World Clock > Weather > Togo > Lome > Past weeks

Flag for Togo Weather past 2 weeks in Lome, Togo

Now
82 °F

Clear.


Feels Like: 91 °F
Forecast: N/A
Wind: 7 mph from Southwest

Location: Lome Airport

Current Time: Dec 17, 2014 at 9:32:17 PM

Latest Report: Dec 17, 2014 at 9:00 PM


Visibility: 5 mi

Pressure: 29.92 "Hg

Humidity: 84%

Dew point: 77 °F

Location of LomeLocation

Historic Weather in Lome — Graph

°F

Lome temperature yesterday

Maximum temperature yesterday: 90 °F (at 12:00 PM)
Minimum temperature yesterday: 79 °F (at 5:00 AM)
Average temperature yesterday: 83 °F

Past Weeks' High & Low Weather Summary

 TemperatureHumidityPressure
High91 °F (Dec 8, 1:00 PM)100% (Dec 13, 5:00 AM)29.95 "Hg (Dec 13, 5:00 AM)
Low75 °F (Dec 14, 5:00 AM)52% (Dec 14, 12:00 PM)29.77 "Hg (Dec 3, 2:00 AM)
Average83 °F83%29.86 "Hg
* Reported Dec 2 8:00 PM — Dec 17 8:00 PM, Lome, Weather by CustomWeather, © 2014

Note: Actual official high and low records may vary slightly from our data, if they occured in-between our weather recording intervals... More about our weather records

Advertising

Lome weather history for previous 24 hours

 ConditionsComfort  
Time TempWeatherWind HumidityBarometerVisibility
8:00 PM
Dec 17
82 °FClear.8 mph84%29.89 "Hg5 mi
7:00 PM82 °FClear.9 mph84%29.86 "Hg5 mi
6:00 PM84 °FClear.8 mph79%29.86 "Hg5 mi
5:00 PM84 °FClear.9 mph79%29.83 "Hg5 mi
4:00 PM86 °FClear.10 mph75%29.83 "Hg5 mi
3:00 PM88 °FClear.10 mph66%29.83 "Hg5 mi
2:00 PM90 °FClear.9 mph59%29.83 "Hg5 mi
1:00 PM90 °FPassing clouds.10 mph63%29.86 "Hg5 mi
12:00 PM90 °FPassing clouds.10 mph63%29.89 "Hg5 mi
11:00 AM88 °FPassing clouds.8 mph66%29.92 "Hg5 mi
10:00 AM88 °FScattered clouds.7 mph70%29.95 "Hg5 mi
9:00 AM84 °FScattered clouds.5 mph79%29.95 "Hg5 mi
8:00 AM82 °FPassing clouds.2 mph89%29.95 "Hg5 mi
7:00 AM79 °FFog.No wind94%29.92 "Hg3 mi
6:00 AM79 °FFog.1 mph94%29.89 "Hg3 mi
5:00 AM79 °FPassing clouds.1 mph94%29.89 "Hg5 mi
4:00 AM79 °FPassing clouds.1 mph94%29.86 "Hg5 mi
3:00 AM81 °FPassing clouds.1 mph89%29.86 "Hg5 mi
2:00 AM81 °FPassing clouds.1 mph89%29.86 "Hg5 mi
1:00 AM81 °FPassing clouds.5 mph89%29.89 "Hg5 mi
12:00 AM81 °FPassing clouds.8 mph94%29.89 "Hg5 mi
11:00 PM
Dec 16
82 °FPassing clouds.8 mph89%29.92 "Hg5 mi
10:00 PM82 °FClear.9 mph84%29.92 "Hg5 mi
9:00 PM82 °FClear.7 mph84%29.92 "Hg5 mi
Weather by CustomWeather, © 2014

See weather overviewHow to use our weather pages